�N����,����,�~����,�C��,���x,�C��,����,���ϕ���,�ő�u�ԕ���,�ő厞����,���˗�,�I�_���x,�n�����x,�ő啗���N��,DTYPE
"18/08/02","00:10",0.0,25.8,84.3,999.3,307.6,1.1,2.5,341.3,0.00,23.0,26.9,"00:09:04",1
"18/08/02","00:20",0.0,25.9,83.7,999.1,286.5,0.8,1.3,279.9,0.00,23.0,26.9,"00:17:04",1
"18/08/02","00:30",0.0,25.9,83.8,999.1,293.0,1.0,1.4,310.3,0.00,23.0,26.9,"00:26:48",1
"18/08/02","00:40",0.0,25.8,83.7,999.1,317.7,0.8,1.3,316.9,0.00,22.9,27.0,"00:31:44",1
"18/08/02","00:50",0.0,25.7,84.4,999.3,322.8,1.1,1.8,317.2,0.00,22.9,26.9,"00:44:08",1
"18/08/02","01:00",0.0,25.7,84.5,999.3,305.3,1.2,2.5,339.5,0.00,22.9,26.7,"00:52:40",1
"18/08/02","01:10",0.0,25.8,84.1,999.1,328.3,1.6,2.5,333.9,0.00,22.9,26.6,"01:02:48",1
"18/08/02","01:20",0.0,25.7,84.0,999.3,332.6,1.6,2.4,342.9,0.00,22.8,26.5,"01:15:36",1
"18/08/02","01:30",0.0,25.6,84.1,999.3,302.1,1.0,1.9,333.1,0.00,22.8,26.6,"01:20:08",1
"18/08/02","01:40",0.0,25.4,84.6,999.3,303.4,0.8,1.9,333.1,0.00,22.7,26.6,"01:39:44",1
"18/08/02","01:50",0.0,25.6,84.5,999.1,324.2,1.8,2.9,330.1,0.00,22.8,26.5,"01:49:12",1
"18/08/02","02:00",0.0,25.7,84.0,999.1,326.7,2.2,3.5,339.2,0.00,22.8,26.4,"01:55:36",1
"18/08/02","02:10",0.0,25.5,83.8,999.6,315.2,1.3,2.8,340.1,0.00,22.6,26.5,"02:01:12",1
"18/08/02","02:20",0.0,25.4,84.2,999.1,321.5,1.2,2.1,332.1,0.00,22.6,26.6,"02:12:16",1
"18/08/02","02:30",0.0,25.4,84.0,999.1,308.0,1.0,2.1,334.3,0.00,22.5,26.4,"02:24:32",1
"18/08/02","02:40",0.0,25.5,83.8,999.3,264.9,0.8,1.6,249.9,0.00,22.6,26.3,"02:30:40",1
"18/08/02","02:50",0.0,25.6,83.6,999.3,289.7,0.7,2.2,326.2,0.00,22.7,26.2,"02:43:28",1
"18/08/02","03:00",0.0,25.4,83.4,999.6,307.6,0.7,2.2,340.7,0.00,22.4,26.2,"02:54:32",1
"18/08/02","03:10",0.0,25.4,84.1,999.8,323.2,1.0,2.0,337.3,0.00,22.6,26.1,"03:08:48",1
"18/08/02","03:20",0.0,25.5,84.0,999.6,323.9,1.3,2.8,331.3,0.00,22.6,26.0,"03:15:20",1
"18/08/02","03:30",0.0,25.4,84.0,999.8,353.8,0.7,2.4,344.7,0.00,22.5,26.0,"03:21:44",1
"18/08/02","03:40",0.0,25.3,85.0,999.6,11.4,0.3,1.4,346.2,0.00,22.6,26.1,"03:38:32",1
"18/08/02","03:50",0.0,25.4,85.1,999.6,320.3,1.2,3.3,330.3,0.00,22.8,26.1,"03:48:40",1
"18/08/02","04:00",0.0,25.5,84.5,999.6,314.1,1.2,2.7,341.1,0.00,22.7,25.8,"03:57:28",1
"18/08/02","04:10",0.0,25.4,84.5,999.8,321.3,1.1,2.4,341.8,0.00,22.6,26.0,"04:09:04",1
"18/08/02","04:20",0.0,25.2,85.1,999.8,315.1,1.3,2.6,331.9,0.00,22.6,26.0,"04:18:16",1
"18/08/02","04:30",0.0,25.0,85.9,1000.0,293.6,0.7,1.7,326.7,0.00,22.5,25.7,"04:20:16",1
"18/08/02","04:40",0.0,25.1,86.2,999.8,318.5,1.3,2.8,341.6,0.00,22.7,25.7,"04:37:52",1
"18/08/02","04:50",0.0,25.1,86.3,999.8,320.5,1.6,2.2,324.7,0.00,22.7,25.9,"04:45:36",1
"18/08/02","05:00",0.0,24.9,86.6,1000.0,310.4,0.7,1.7,333.0,0.00,22.6,25.7,"04:51:12",1
"18/08/02","05:10",0.0,24.9,87.3,999.8,340.6,0.6,1.8,334.9,0.00,22.7,25.7,"05:00:02",1
"18/08/02","05:20",0.0,24.8,87.7,1000.0,327.1,1.0,2.1,327.9,0.00,22.7,25.7,"05:10:56",1
"18/08/02","05:30",0.0,24.9,87.7,1000.0,308.3,1.7,3.4,338.1,0.00,22.8,25.7,"05:27:28",1
"18/08/02","05:40",0.0,25.0,87.3,1000.0,291.8,1.0,2.8,332.7,0.00,22.8,25.9,"05:30:08",1
"18/08/02","05:50",0.0,25.0,87.4,1000.3,303.3,1.0,1.6,332.4,0.00,22.8,25.7,"05:44:00",1
"18/08/02","06:00",0.0,25.0,87.6,1000.5,304.7,1.0,1.8,331.6,0.00,22.8,25.7,"05:55:44",1
"18/08/02","06:10",0.0,25.2,87.4,1000.0,317.2,1.5,3.1,347.6,0.01,23.0,25.8,"06:00:02",1
"18/08/02","06:20",0.0,25.6,86.5,1000.5,328.3,2.0,3.3,333.3,0.02,23.2,25.8,"06:16:16",1
"18/08/02","06:30",0.0,26.2,85.2,1000.5,326.5,1.3,3.3,335.0,0.04,23.6,25.5,"06:20:40",1
"18/08/02","06:40",0.0,26.7,83.2,1000.5,342.6,1.3,3.1,340.9,0.04,23.7,25.7,"06:34:08",1
"18/08/02","06:50",0.0,27.3,81.3,1000.3,345.6,1.0,2.4,346.6,0.05,23.9,25.7,"06:44:16",1
"18/08/02","07:00",0.0,27.7,80.1,1000.3,340.8,0.8,1.6,3.0,0.09,24.0,25.7,"06:55:12",1
"18/08/02","07:10",0.0,29.0,76.9,1000.5,335.0,0.2,1.1,351.3,0.13,24.6,26.0,"07:00:16",1
"18/08/02","07:20",0.0,29.1,76.2,999.8,307.4,0.5,1.6,347.8,0.06,24.5,25.8,"07:17:12",1
"18/08/02","07:30",0.0,28.8,76.3,999.6,339.2,0.6,1.8,350.1,0.07,24.3,26.0,"07:21:28",1
"18/08/02","07:40",0.0,28.7,77.4,999.6,318.6,0.6,1.9,9.3,0.11,24.4,26.2,"07:38:00",1
"18/08/02","07:50",0.0,29.2,75.4,1000.0,259.6,0.6,1.7,350.6,0.17,24.4,26.3,"07:41:20",1
"18/08/02","08:00",0.0,30.0,72.4,1000.0,28.4,1.0,2.6,349.0,0.20,24.5,26.5,"07:54:16",1
"18/08/02","08:10",0.0,29.9,73.0,1000.8,113.2,1.0,1.8,173.7,0.25,24.6,26.7,"08:08:48",1
"18/08/02","08:20",0.0,30.0,71.5,1001.2,146.7,1.0,2.7,211.8,0.25,24.3,26.8,"08:14:32",1
"18/08/02","08:30",0.0,30.6,70.6,1001.7,108.6,0.7,1.9,98.1,0.26,24.7,27.0,"08:25:52",1
"18/08/02","08:40",0.0,30.7,71.4,1001.7,193.9,1.2,3.3,205.6,0.32,25.0,26.9,"08:35:28",1
"18/08/02","08:50",0.0,30.4,70.9,1001.7,167.4,1.1,2.2,135.6,0.28,24.6,27.1,"08:48:56",1
"18/08/02","09:00",0.0,30.5,72.4,1001.9,159.0,1.3,3.5,202.2,0.25,25.0,27.5,"08:58:32",1
"18/08/02","09:10",0.0,30.7,71.3,1001.7,149.2,1.1,2.4,185.9,0.29,24.9,27.8,"09:02:40",1
"18/08/02","09:20",0.0,31.9,66.1,1002.2,96.7,0.8,1.9,130.3,0.39,24.8,27.9,"09:13:04",1
"18/08/02","09:30",0.0,30.5,71.0,1002.4,314.9,0.5,1.6,352.0,0.14,24.7,27.9,"09:29:36",1
"18/08/02","09:40",0.0,30.6,71.3,1002.2,359.8,0.8,2.2,344.1,0.14,24.8,27.7,"09:31:04",1
"18/08/02","09:50",0.0,31.6,69.7,1002.2,228.2,0.7,2.9,224.6,0.28,25.4,28.3,"09:42:56",1
"18/08/02","10:00",0.0,32.1,65.8,1002.4,209.8,1.0,3.2,224.6,0.46,24.9,28.5,"09:52:40",1
"18/08/02","10:10",0.0,32.6,64.4,1002.9,180.7,1.0,2.9,194.4,0.47,25.0,28.7,"10:09:12",1
"18/08/02","10:20",0.0,32.9,62.2,1002.9,138.4,1.0,2.7,356.0,0.34,24.7,28.9,"10:19:52",1
"18/08/02","10:30",0.0,32.9,61.3,1002.9,286.3,1.1,3.1,352.2,0.46,24.5,29.0,"10:20:08",1
"18/08/02","10:40",0.0,32.6,60.7,1002.9,207.5,1.3,3.5,213.4,0.50,24.1,29.1,"10:36:32",1
"18/08/02","10:50",0.0,33.7,59.6,1003.6,240.5,0.7,1.9,308.2,0.53,24.8,29.4,"10:49:04",1
"18/08/02","11:00",0.0,33.5,60.1,1003.1,240.6,1.1,3.4,217.4,0.51,24.7,29.6,"10:58:56",1
"18/08/02","11:10",0.0,33.6,56.6,1003.6,242.3,1.1,4.4,215.1,0.54,23.8,30.1,"11:01:28",1
"18/08/02","11:20",0.0,34.4,57.9,1003.8,111.2,1.0,2.6,352.9,0.54,24.9,30.2,"11:18:16",1
"18/08/02","11:30",0.0,34.1,58.2,1003.4,236.0,1.3,3.3,335.5,0.56,24.8,30.5,"11:20:02",1
"18/08/02","11:40",0.0,34.7,56.2,1003.4,341.2,1.5,4.9,348.1,0.56,24.7,30.9,"11:36:56",1
"18/08/02","11:50",0.0,35.1,56.8,1003.4,108.3,1.0,2.8,345.8,0.56,25.3,31.0,"11:41:04",1
"18/08/02","12:00",0.0,34.3,57.6,1003.4,346.2,1.1,2.1,354.0,0.41,24.8,31.0,"11:53:04",1
"18/08/02","12:10",0.0,34.6,57.3,1002.6,200.7,1.2,3.2,211.9,0.35,25.0,31.4,"12:08:16",1
"18/08/02","12:20",0.0,35.3,54.5,1002.6,177.0,1.1,2.6,219.8,0.57,24.8,31.4,"12:17:52",1
"18/08/02","12:30",0.0,35.3,52.1,1002.9,206.6,1.3,3.2,220.6,0.58,24.0,31.6,"12:24:32",1
"18/08/02","12:40",0.0,35.4,51.3,1002.6,236.1,1.5,3.9,233.7,0.58,23.9,31.9,"12:32:56",1
"18/08/02","12:50",0.0,35.6,51.2,1002.6,325.6,1.0,3.1,329.8,0.58,24.0,32.2,"12:45:52",1
"18/08/02","13:00",0.0,35.9,51.3,1002.6,248.7,1.5,4.0,211.6,0.58,24.3,32.3,"12:58:00",1
"18/08/02","13:10",0.0,36.1,52.0,1002.6,186.4,1.7,4.8,205.8,0.56,24.7,32.3,"13:05:40",1
"18/08/02","13:20",0.0,36.4,51.3,1001.9,189.6,1.3,3.7,122.7,0.56,24.8,32.6,"13:17:52",1
"18/08/02","13:30",0.0,36.6,50.7,1002.2,184.3,1.5,3.4,221.2,0.57,24.8,32.5,"13:26:00",1
"18/08/02","13:40",0.0,36.3,48.8,1002.4,221.2,1.7,4.1,218.0,0.55,23.8,32.4,"13:30:48",1
"18/08/02","13:50",0.0,37.0,49.4,1002.6,305.0,1.2,3.3,327.5,0.55,24.7,32.6,"13:42:56",1
"18/08/02","14:00",0.0,36.7,48.2,1002.2,320.6,1.8,4.9,351.5,0.55,24.0,32.4,"13:55:44",1
"18/08/02","14:10",0.0,37.1,46.3,1002.2,325.5,1.5,3.5,339.4,0.53,23.7,32.6,"14:09:36",1
"18/08/02","14:20",0.0,37.1,43.6,1001.9,318.6,1.2,4.8,344.6,0.52,22.7,32.5,"14:18:00",1
"18/08/02","14:30",0.0,37.1,46.9,1001.9,321.0,1.7,4.8,341.5,0.51,23.9,32.6,"14:23:44",1
"18/08/02","14:40",0.0,37.1,46.3,1001.7,330.8,1.7,4.8,333.4,0.50,23.7,32.4,"14:39:04",1
"18/08/02","14:50",0.0,36.9,48.1,1001.7,239.8,2.1,4.7,333.4,0.47,24.2,32.5,"14:40:40",1
"18/08/02","15:00",0.0,37.5,47.9,1001.5,213.6,2.0,4.1,219.5,0.46,24.6,32.7,"14:55:04",1
"18/08/02","15:10",0.0,36.7,49.4,1001.0,222.5,1.8,4.3,231.4,0.44,24.4,32.7,"15:07:12",1
"18/08/02","15:20",0.0,37.5,46.9,1001.2,242.9,1.1,2.5,220.7,0.41,24.3,32.7,"15:14:00",1
"18/08/02","15:30",0.0,36.6,50.1,1000.8,241.4,2.1,5.5,353.2,0.38,24.6,32.7,"15:20:40",1
"18/08/02","15:40",0.0,37.4,48.5,1001.2,216.8,1.2,3.6,338.7,0.37,24.7,32.8,"15:32:00",1
"18/08/02","15:50",0.0,36.7,50.1,1000.5,222.8,2.3,4.8,204.7,0.35,24.6,32.7,"15:44:32",1
"18/08/02","16:00",0.0,36.7,49.7,1000.5,256.4,1.3,2.9,339.6,0.35,24.5,32.8,"15:52:08",1
"18/08/02","16:10",0.0,36.9,48.6,1000.5,255.8,1.1,3.6,219.8,0.19,24.3,32.9,"16:00:40",1
"18/08/02","16:20",0.0,35.8,50.5,1000.5,246.3,1.2,3.2,225.8,0.04,24.0,32.8,"16:16:48",1
"18/08/02","16:30",0.0,35.4,52.6,1000.3,239.7,1.0,2.9,226.7,0.03,24.3,32.5,"16:27:04",1
"18/08/02","16:40",0.0,34.6,55.7,1000.3,138.3,1.2,3.6,141.0,0.03,24.5,32.6,"16:38:16",1
"18/08/02","16:50",0.0,33.7,59.1,1000.3,123.2,1.2,2.6,141.1,0.01,24.6,32.2,"16:43:04",1
"18/08/02","17:00",0.0,33.2,61.1,999.8,100.0,1.3,3.6,124.0,0.01,24.7,32.2,"16:51:12",1
"18/08/02","17:10",0.0,32.7,62.5,999.3,103.0,1.1,3.6,82.0,0.02,24.6,31.9,"17:04:56",1
"18/08/02","17:20",0.0,32.8,62.2,999.6,88.0,1.0,3.2,24.6,0.05,24.7,31.9,"17:10:40",1
"18/08/02","17:30",0.0,33.1,61.8,999.6,42.4,1.1,3.5,52.5,0.04,24.8,31.7,"17:29:04",1
"18/08/02","17:40",0.0,31.5,66.8,999.6,355.1,2.6,6.7,329.8,0.00,24.6,31.6,"17:39:28",1
"18/08/02","17:50",0.0,30.8,70.9,999.1,358.3,2.3,4.3,33.1,0.01,24.9,31.3,"17:41:28",1
"18/08/02","18:00",0.4,29.4,76.6,998.2,317.0,1.6,4.3,341.1,0.01,24.9,31.2,"17:51:36",1
"18/08/02","18:10",0.0,28.9,80.6,998.2,324.6,0.7,2.9,347.8,0.00,25.3,31.1,"18:05:20",1
"18/08/02","18:20",0.0,28.8,81.8,998.4,344.4,1.5,3.1,334.2,0.00,25.4,31.0,"18:17:28",1
"18/08/02","18:30",0.0,28.6,83.1,999.1,321.1,1.1,2.8,338.5,0.00,25.5,30.7,"18:20:16",1
"18/08/02","18:40",0.0,28.7,79.8,999.1,280.1,1.5,3.6,290.1,0.00,24.9,30.6,"18:30:32",1
"18/08/02","18:50",0.0,28.5,78.2,999.1,330.2,2.0,4.3,347.0,0.00,24.4,30.6,"18:43:28",1
"18/08/02","19:00",0.0,28.5,76.6,999.3,335.4,2.5,6.7,347.7,0.00,24.0,30.3,"18:50:40",1
"18/08/02","19:10",0.0,28.3,77.6,999.1,334.6,2.6,5.7,336.4,0.00,24.0,30.1,"19:00:02",1
"18/08/02","19:20",0.0,28.2,78.5,999.1,324.6,2.3,7.0,325.3,0.00,24.1,30.0,"19:10:08",1
"18/08/02","19:30",0.0,28.1,80.0,998.9,337.6,1.6,3.4,346.9,0.00,24.4,29.7,"19:20:40",1
"18/08/02","19:40",0.0,27.9,81.4,999.3,327.6,1.8,3.1,321.0,0.00,24.5,29.7,"19:34:16",1
"18/08/02","19:50",0.0,27.8,82.1,999.3,310.9,1.2,2.2,345.5,0.00,24.5,29.6,"19:44:48",1
"18/08/02","20:00",0.0,27.7,82.7,999.8,325.4,1.7,3.5,336.2,0.00,24.5,29.5,"19:56:32",1
"18/08/02","20:10",0.0,27.8,83.2,999.3,329.3,1.6,2.5,335.7,0.00,24.7,29.3,"20:00:08",1
"18/08/02","20:20",0.0,27.6,83.5,1000.0,327.5,1.5,2.8,327.6,0.00,24.6,29.3,"20:15:44",1
"18/08/02","20:30",0.0,27.5,83.3,1000.0,298.0,1.0,1.7,320.7,0.00,24.5,29.1,"20:20:24",1
"18/08/02","20:40",0.0,27.5,83.5,1000.3,329.8,2.2,4.4,339.2,0.00,24.5,29.0,"20:36:48",1
"18/08/02","20:50",0.0,27.5,84.2,1000.3,330.4,1.6,3.5,335.2,0.00,24.6,28.9,"20:40:08",1
"18/08/02","21:00",0.0,27.2,84.8,1000.5,331.7,2.0,3.4,325.8,0.00,24.5,29.0,"20:59:36",1
"18/08/02","21:10",0.0,27.2,85.4,1000.8,326.4,2.0,3.7,321.2,0.00,24.6,28.9,"21:00:02",1
"18/08/02","21:20",0.0,27.1,86.1,1000.8,317.3,1.7,4.5,330.4,0.00,24.6,28.7,"21:10:32",1
"18/08/02","21:30",0.0,27.1,86.6,1000.8,317.8,1.8,3.3,316.7,0.00,24.7,28.7,"21:29:44",1
"18/08/02","21:40",0.0,27.1,86.7,1000.8,332.0,1.8,3.7,328.4,0.00,24.7,28.6,"21:31:28",1
"18/08/02","21:50",0.0,27.0,86.9,1000.8,332.2,1.6,2.9,344.9,0.00,24.7,28.8,"21:48:24",1
"18/08/02","22:00",0.0,26.9,87.3,1001.0,331.1,1.3,3.6,340.8,0.00,24.6,28.4,"21:58:40",1
"18/08/02","22:10",0.0,26.8,87.5,1001.0,332.3,1.5,3.3,340.7,0.00,24.6,28.3,"22:00:08",1
"18/08/02","22:20",0.0,26.7,87.8,1000.8,336.1,1.3,2.5,336.7,0.00,24.5,28.3,"22:11:20",1
"18/08/02","22:30",0.0,26.6,88.0,1000.8,337.3,1.5,2.5,351.9,0.00,24.5,28.3,"22:21:44",1
"18/08/02","22:40",0.0,26.6,88.1,1001.0,325.7,1.3,2.1,326.3,0.00,24.5,28.2,"22:30:24",1
"18/08/02","22:50",0.0,26.5,88.3,1000.8,309.5,1.2,2.8,328.7,0.00,24.4,28.2,"22:49:44",1
"18/08/02","23:00",0.0,26.6,88.1,1001.0,323.8,1.7,3.3,336.8,0.00,24.5,28.2,"22:50:02",1
"18/08/02","23:10",0.0,26.5,88.0,1001.2,337.6,1.7,2.8,336.5,0.00,24.4,28.0,"23:03:44",1
"18/08/02","23:20",0.0,26.6,88.1,1000.8,336.2,2.1,4.1,352.3,0.00,24.5,28.1,"23:17:36",1
"18/08/02","23:30",0.0,26.7,87.8,1001.0,329.9,2.1,3.7,289.8,0.00,24.5,28.0,"23:20:56",1
"18/08/02","23:40",0.0,26.6,87.8,1001.2,330.7,1.8,3.4,289.0,0.00,24.4,27.9,"23:30:24",1
"18/08/02","23:50",0.0,26.5,87.8,1001.2,323.1,2.2,4.0,334.1,0.00,24.4,27.8,"23:47:28",1
"18/08/02","24:00",0.0,26.4,88.0,1001.0,329.0,2.5,4.2,350.7,0.00,24.3,27.8,"23:51:28",1
